CW8490 Weather Reports


Display with metric or nautical units.
time (UTC)temp
F
wind
direction
speed
MPH
gust
MPH
rain 1hr
in
rain 24hr
in
rain mn
in
humidity
%
barometer
mb
20260507024617 43 0.0 0.0 0.00 0.03 0.02 76 1017.0
20260507023617 44 0.0 0.0 0.00 0.03 0.02 76 1016.9
20260507022617 45 0.0 0.0 0.00 0.03 0.02 76 1016.9
20260507021617 46 0.0 0.0 0.00 0.03 0.02 75 1016.9
20260507020617 46 0.0 0.0 0.00 0.03 0.02 70 1016.8
20260507015617 47 0.0 0.0 0.00 0.03 0.02 68 1016.7
20260507014617 47 0.0 0.0 0.00 0.03 0.02 66 1016.6
20260507013617 49 0.0 0.0 0.00 0.03 0.02 65 1016.5
20260507012617 50 0.0 0.0 0.00 0.03 0.02 63 1016.5
20260507011617 52 0.0 0.0 0.00 0.03 0.02 62 1016.3
20260507010617 54 0.0 0.0 0.00 0.03 0.02 61 1016.3
20260507005617 55 0.0 1.0 0.00 0.03 0.02 61 1016.4
20260507004637 56 0.0 0.0 0.00 0.03 0.02 54 1016.3
20260507003617 57 23 2.0 3.0 0.00 0.03 0.02 50 1016.2
20260507002617 58 0 2.0 3.0 0.00 0.03 0.02 49 1016.2
20260507001617 58 23 3.0 3.0 0.00 0.03 0.02 50 1016.2
20260507000617 58 23 3.0 4.0 0.00 0.03 0.02 48 1016.2
20260506235617 59 0 3.0 4.0 0.00 0.03 0.02 50 1016.3
20260506234617 59 0 2.0 3.0 0.00 0.03 0.02 46 1016.2
20260506233617 58 45 3.0 4.0 0.00 0.03 0.02 48 1016.2
20260506232617 59 23 3.0 4.0 0.00 0.03 0.02 47 1016.2
20260506231617 60 23 3.0 3.0 0.00 0.03 0.02 49 1016.2
20260506230617 60 0 1.0 2.0 0.00 0.03 0.02 48 1016.2
20260506225615 60 0 1.0 2.0 0.00 0.03 0.02 50 1016.3
20260506224615 60 23 3.0 5.0 0.00 0.03 0.02 50 1016.4
20260506223615 60 23 4.0 5.0 0.00 0.03 0.02 49 1016.3
20260506222615 60 315 3.0 4.0 0.00 0.03 0.02 47 1016.4
20260506221615 60 23 2.0 3.0 0.00 0.03 0.02 49 1016.4
20260506220615 60 0 2.0 3.0 0.00 0.03 0.02 47 1016.5
20260506215615 60 23 3.0 4.0 0.00 0.03 0.02 52 1016.6
20260506214615 60 23 1.0 2.0 0.00 0.03 0.02 49 1016.7
20260506213615 59 23 1.0 1.0 0.00 0.03 0.02 50 1016.7
20260506212706 60 338 1.0 1.0 0.00 0.03 0.02 52 1016.6
20260506212215 59 0 3.0 5.0 0.00 0.03 0.02 51 1016.8
20260506211215 59 23 5.0 9.0 0.00 0.03 0.02 52 1017.0
20260506210255 59 23 1.0 3.0 0.00 0.03 0.02 48 1017.1
20260506205235 59 23 3.0 5.0 0.00 0.03 0.02 53 1017.3
20260506204235 59 23 4.0 5.0 0.00 0.03 0.02 50 1017.3
20260506203215 59 0 2.0 5.0 0.00 0.03 0.02 47 1017.5
20260506202243 60 0.0 0.0 0.00 0.04 0.02 55 1017.6
20260506201615 59 23 1.0 2.0 0.00 0.04 0.02 54 1017.7
20260506200615 59 0 4.0 5.0 0.00 0.04 0.02 57 1017.7
20260506195616 59 23 4.0 6.0 0.00 0.05 0.02 53 1017.8
20260506194615 59 90 1.0 3.0 0.00 0.06 0.02 51 1017.8
20260506193635 58 0 3.0 5.0 0.00 0.07 0.02 54 1017.9
20260506192616 59 45 2.0 3.0 0.00 0.09 0.02 53 1018.0
20260506191616 58 23 3.0 4.0 0.00 0.09 0.02 55 1018.0
20260506190616 58 0.0 1.0 0.00 0.10 0.02 53 1018.1
20260506185616 57 23 3.0 5.0 0.00 0.11 0.02 53 1018.2
20260506184616 56 338 3.0 4.0 0.00 0.12 0.02 55 1018.2
20260506183615 56 23 2.0 2.0 0.00 0.14 0.02 53 1018.2
20260506182636 56 23 2.0 3.0 0.00 0.15 0.02 51 1018.2
20260506181615 56 23 3.0 4.0 0.00 0.16 0.02 55 1018.4
20260506180615 55 23 1.0 1.0 0.00 0.16 0.02 53 1018.4
20260506175616 55 23 3.0 5.0 0.00 0.16 0.02 54 1018.6
20260506174615 55 23 2.0 2.0 0.00 0.17 0.02 55 1018.7
20260506173636 55 0 1.0 2.0 0.00 0.19 0.02 54 1018.7
20260506172615 55 0 2.0 2.0 0.00 0.20 0.02 55 1018.7
20260506171615 56 23 3.0 4.0 0.00 0.22 0.02 57 1018.7
20260506170616 57 0 1.0 2.0 0.00 0.24 0.02 60 1018.5
20260506165615 56 0 4.0 5.0 0.00 0.27 0.02 61 1018.4
20260506164616 56 23 3.0 4.0 0.00 0.29 0.02 56 1018.5
20260506163636 56 23 3.0 4.0 0.00 0.31 0.02 55 1018.4
20260506162616 55 23 3.0 4.0 0.00 0.31 0.02 53 1018.3
20260506161717 56 23 4.0 4.0 0.00 0.31 0.02 58 1018.3
20260506161516 56 23 2.0 3.0 0.00 0.31 0.02 58 1018.3
20260506160516 57 0 3.0 5.0 0.00 0.32 0.02 57 1018.1
20260506155516 56 23 4.0 5.0 0.00 0.33 0.02 61 1018.0
20260506154516 56 0 3.0 5.0 0.00 0.34 0.02 61 1017.9
20260506153516 56 23 2.0 3.0 0.00 0.35 0.02 61 1017.9
20260506152516 55 0 3.0 4.0 0.00 0.36 0.02 58 1017.7
20260506151536 55 270 2.0 3.0 0.00 0.36 0.02 57 1017.8
20260506150516 55 23 1.0 2.0 0.00 0.36 0.02 63 1018.0
20260506145516 55 0 1.0 2.0 0.00 0.36 0.02 66 1018.0
20260506144536 55 0 2.0 2.0 0.00 0.37 0.02 69 1017.9
20260506143516 54 23 3.0 3.0 0.00 0.39 0.02 67 1017.8
20260506142516 54 315 1.0 2.0 0.00 0.42 0.02 72 1017.8
20260506141605 53 0.0 0.0 0.00 0.43 0.02 73 1017.5
20260506141016 53 23 1.0 2.0 0.00 0.44 0.02 73 1017.6
20260506140016 52 23 1.0 2.0 0.00 0.44 0.02 74 1017.3
20260506135016 52 338 1.0 2.0 0.00 0.45 0.02 77 1017.2
20260506134036 52 23 2.0 2.0 0.00 0.46 0.02 78 1017.2
20260506133016 52 0.0 1.0 0.00 0.47 0.02 81 1017.0
20260506132016 50 0.0 1.0 0.00 0.47 0.02 84 1016.9
20260506131016 49 0.0 0.0 0.00 0.47 0.02 89 1016.9
20260506130016 48 0.0 0.0 0.00 0.47 0.02 90 1016.6
20260506125016 47 0.0 1.0 0.00 0.47 0.02 90 1016.5
20260506124016 46 293 1.0 1.0 0.00 0.48 0.02 90 1016.5
20260506123016 46 0.0 0.0 0.00 0.48 0.02 91 1016.2
20260506122036 46 0.0 0.0 0.00 0.48 0.02 91 1016.0
20260506121016 45 0.0 0.0 0.00 0.48 0.02 91 1015.8
20260506120016 45 0.0 0.0 0.00 0.48 0.02 90 1015.6
20260506115048 45 0.0 0.0 0.00 0.48 0.02 90 1015.4
20260506114116 45 0.0 0.0 0.00 0.48 0.02 89 1015.3
20260506113136 45 0.0 0.0 0.00 0.48 0.02 89 1015.5
20260506112116 45 0.0 0.0 0.00 0.48 0.02 89 1015.5
20260506111116 45 0.0 0.0 0.00 0.49 0.02 89 1015.9
20260506110116 45 0.0 0.0 0.00 0.49 0.02 90 1015.8
20260506105116 45 270 1.0 2.0 0.00 0.50 0.02 90 1016.0
20260506104116 45 315 1.0 1.0 0.00 0.50 0.02 91 1016.2
20260506103116 45 293 1.0 3.0 0.00 0.50 0.02 92 1015.8
20260506102207 45 270 2.0 2.0 0.00 0.50 0.02 93 1015.4
20260506101116 45 0.0 0.0 0.00 0.50 0.02 93 1014.7
20260506100116 45 0.0 0.0 0.00 0.50 0.02 93 1014.3
20260506095116 45 0.0 0.0 0.00 0.50 0.02 93 1014.4
20260506094116 45 0.0 0.0 0.00 0.50 0.02 93 1014.2
20260506093116 45 0.0 1.0 0.00 0.50 0.02 93 1014.3
20260506092116 45 113 1.0 1.0 0.00 0.50 0.02 93 1014.2
20260506091116 45 0.0 0.0 0.01 0.50 0.02 92 1014.6
20260506090116 45 0.0 0.0 0.01 0.50 0.02 92 1014.7
20260506085116 45 0.0 0.0 0.01 0.50 0.02 92 1014.5
20260506084116 45 0.0 1.0 0.01 0.50 0.02 91 1014.5
20260506083117 45 0.0 1.0 0.01 0.53 0.02 91 1014.2
20260506082116 45 293 1.0 1.0 0.01 0.58 0.02 90 1014.0
20260506081117 45 0.0 0.0 0.00 0.62 0.01 89 1013.4
20260506080116 45 0.0 0.0 0.00 0.67 0.01 89 1013.3
20260506073116 45 0.0 0.0 0.01 0.77 0.01 87 1013.3
20260506072117 45 45 1.0 2.0 0.01 0.78 0.01 89 1013.8
20260506071116 45 23 2.0 2.0 0.01 0.80 0.01 88 1014.2
20260506070117 45 23 1.0 2.0 0.01 0.89 0.01 88 1014.4
20260506062116 46 23 2.0 3.0 0.00 1.08 0.00 84 1014.7
20260506061117 46 0 2.0 2.0 0.00 1.08 0.00 85 1014.7
20260506060116 46 0 3.0 3.0 0.00 1.09 0.00 85 1014.2
20260506051216 47 0 4.0 5.0 0.01 1.09 0.00 90 1013.9
20260506050257 47 0 2.0 3.0 0.01 1.09 0.00 95 1013.7
20260506044216 47 248 2.0 4.0 0.00 1.08 1.08 95 1013.3
20260506043215 47 293 1.0 2.0 0.00 1.08 1.08 95 1013.1
20260506042216 47 0.0 1.0 0.00 1.08 1.08 95 1012.8
20260506041215 47 0.0 0.0 0.00 1.08 1.08 95 1013.0
20260506040215 47 0.0 0.0 0.00 1.08 1.08 95 1013.0
20260506035216 46 0.0 0.0 0.00 1.08 1.08 95 1013.0
20260506034216 46 0.0 0.0 0.00 1.08 1.08 94 1012.7
20260506033215 46 203 2.0 2.0 0.00 1.08 1.08 94 1012.7
20260506032216 46 0.0 1.0 0.00 1.08 1.08 94 1012.6
20260506031216 46 0.0 0.0 0.00 1.08 1.08 94 1012.4
20260506030216 46 0.0 0.0 0.00 1.08 1.08 94 1012.3